User: anonymous   Login
Location: Bessat
(45.8735°N, 1.9924°E)
Time: 22:46:48
(UTC+00:00)
Language:

Sich 1 - Orbit

View from above orbital plane
View from above orbital plane
View from above satellite
View from above satellite

Ground track
Ground track

The orbit data is extracted from the following two-line orbital elements,

1 23657U 95046A   21204.50662163  .00000285  00000-0  29431-4 0  9993
2 23657  82.5280 293.6933 0022626 160.1946 200.0154 14.86312535399540
Epoch (UTC): 23 July 2021 12:09:32
Eccentricity: 0.0022626
inclination: 82.5280°
perigee height: 593 km
apogee height: 625 km
right ascension of ascending node: 293.6933°
argument of perigee: 160.1946°
revolutions per day: 14.86312535
mean anomaly at epoch: 200.0154°
orbit number at epoch: 39954

The dashed part of the orbit path shows where the satellite is in the earth's shadow,  

DLR